Location: Libas
(9.8833°N, 125.9833°E)
Time: 21:42:00
(UTC+00:00)

N. Korean satellite - Visible Passes

Search period start: 22 January 2021 00:00
Search period end: 01 February 2021 00:00
Orbit: 452 x 502 km, 97.2° (Epoch: 22 January)

Date Brightness Start Highest point End Pass type
(mag) Time Alt. Az. Time Alt. Az. Time Alt. Az.
22 Jan 8.1 20:24:01 10° NNE 20:27:08 33° E 20:30:13 10° SSE visible
23 Jan 9.8 19:59:06 10° ENE 20:00:34 12° E 20:02:02 10° SE visible
23 Jan 8.1 21:31:43 10° NW 21:33:38 14° WNW 21:35:34 10° WSW visible
24 Jan 6.8 21:03:58 10° N 21:07:09 39° WNW 21:10:21 10° SSW visible
25 Jan 6.9 20:37:17 10° NNE 20:40:38 62° E 20:43:59 10° S visible
26 Jan 9.1 20:11:30 10° NE 20:14:06 20° E 20:16:41 10° SSE visible
27 Jan 7.5 21:17:53 10° NNW 21:20:38 23° WNW 21:23:23 10° SW visible
28 Jan 6.2 20:50:45 10° N 20:54:07 71° WNW 20:57:31 10° SSW visible
29 Jan 8.1 20:24:27 10° NNE 20:27:35 35° E 20:30:43 10° SSE visible
30 Jan 9.8 19:59:25 10° ENE 20:01:00 13° E 20:02:36 10° SE visible
30 Jan 8.2 21:32:13 10° NW 21:34:04 14° WNW 21:35:56 10° WSW visible
31 Jan 6.8 21:04:24 10° N 21:07:34 38° WNW 21:10:46 10° SSW visible
